www.pogodaiklimat.ru

Погода и климат >> Архив погоды >> Монголия >> Алтай


ПОГОДА в Алтае

  • Прогноз погоды в Алтае
  • Монитор погоды в Алтае

АРХИВ ПОГОДЫ в Алтае

Время (UTC), дата Ветер
(напр.,м/с)
 
Видим.   Явления Облачность Т
(С)
Тd
(С)
f
(%)
Тe
(С)
Тes
(С)
Комфортность P
(гПа)
Po
(гПа)
Тmin
(С)
Tmax
(С)
R
(мм)
R24
(мм)
S
(см)
18 18.06 ЮЗ 3 н/о 8/0
[Ac trans]
+13.2 +3.3 51 +12 +12 1011.8 780.3
21 18.06 З 1 н/о 6/3 1000 м
[Sc Ac trans]
+12.9 +2.7 50 +13 +13 1011.8 780.1
00 19.06 С 3 50 км 8/0
[Ac trans Ci]
+14.9 +5.1 52 +14 +16 1011.3 781.2 +11.9
03 19.06 штиль 0 50 км 8/1 1000 м
[Cu med, cong Ci sp]
+19.4 +4.3 37 +20 +34 опасность
простуды
1007.3 781.1
06 19.06 СЗ 2 50 км в посл. час гроза 8/4 1000 м
[Cu med, cong Ci sp]
+23.3 +1.0 23 +22 +32 комфорт 1002.7 780.2
09 19.06 З 3
{9}
50 км 8/3 1000 м
[Sc As trans Cs]
+24.3 -5.9 13 +22 +26 комфорт 1000.9 779.4
12 19.06 ЮЗ 2 50 км 4/3 1000 м
[Sc Cs]
+22.6 -9.4 11 +20 +21 1003.0 780.0 +25.0
15 19.06 ЮЗ 5 н/о 5/3 1000 м
[Sc Ac trans]
+18.8 -3.4 22 +18 +18 1007.3 780.7
18 19.06 ЮЗ 4 н/о 6/3 1000 м
[Sc Ac trans]
+16.2 +3.6 43 +16 +16 1010.9 781.7
21 19.06 СЗ 5 н/о 5/5 1000 м
[Sc]
+10.9 +6.2 73 +8 +8 1015.6 781.6
00 20.06 СЗ 2 50 км 5/3 1000 м
[Sc Ac trans]
+13.5 +6.8 64 +13 +15 1014.0 782.2 +9.6
03 20.06 С 1 50 км 6/3 1000 м
[Cu hum Ac As Ci]
+20.6 +2.9 31 +22 +31 комфорт 1008.0 782.5
06 20.06 Ю 6
{12}
50 км 8/5 1000 м
[Cu med, cong Ac As Ci]
+22.9 +0.1 22 +22 +25 комфорт 1005.4 782.0
09 20.06 ЮВ 5 50 км 9/8 1000 м
[Cu med, cong Ci fib]
+23.0 -1.2 20 +22 +23 комфорт 1004.4 781.3
12 20.06 ЮВ 3 50 км 8/5 1000 м
[Sc Ac trans Ci fib]
+22.7 -0.1 22 +22 +22 комфорт 1004.8 781.4 +24.2
15 20.06 В 3
{9}
н/о 8/4 1000 м
[Sc Ac trans]
+18.4 +3.1 36 +19 +19 1010.3 782.8
18 20.06 СЗ 3 н/о 9/8 1000 м
[Sc Ac trans]
+16.3 +4.7 46 +16 +16 1012.1 782.7
21 20.06 Ю 1 н/о 6/4 1000 м
[Sc Ac trans]
+16.4 +3.5 42 +17 +17 1011.4 782.2
00 21.06 С 1 50 км 9/5 1000 м
[Sc Ac lent]
+17.5 +4.8 43 +19 +19 1011.3 782.9 +13.9
03 21.06 В 1 50 км 8/4 1000 м
[Cu hum Ac cast Ci sp]
+21.3 +3.9 32 +22 +28 комфорт 1007.9 782.9
06 21.06 Ю 3
{11}
20 км гроза, ливневой дождь 9/8 1000 м
[Cb calv Ac As Ci ing]
+20.4 +3.6 33 +21 +24 комфорт 1008.0 782.4
09 21.06 Ю 7 50 км {гроза} 9/8 1000 м
[Cb cap Ac As Cs]
+21.5 +2.7 29 +21 +22 комфорт 1006.0 781.5
12 21.06 С 2
{9}
50 км 9/8 600 м
[Cu Sc Ac und]
+19.2 +4.9 39 +20 +20 1009.3 782.5 +23.2 0.1
15 21.06 Ю 2
{10}
н/о 8/3 1000 м
[Cu Sc Ac trans Ci]
+15.3 +7.3 59 +15 +15 1013.4 782.0
18 21.06 штиль 0 н/о 4/0
[Ac trans]
+12.1 +7.8 75 +12 +12 1015.9 787.7
21 21.06 ЮЗ 2 н/о 9/8 1000 м
[Sc Ac trans]
+13.0 +7.7 70 +12 +12 1013.1 781.7
00 22.06 Ю 6 50 км 9/5 1000 м
[Sc Ac trans Ci sp]
+16.9 +6.1 49 +16 +16 1010.1 781.6 +12.1
03 22.06 ЮЗ 6 50 км 9/6 1000 м
[Sc diur, vesp Ac trans Ci sp]
+21.4 +4.0 32 +22 +23 комфорт 1006.2 781.6
06 22.06 З 7
{14}
50 км 9/8 1000 м
[Sc Ac As]
+21.7 +2.4 28 +22 +22 комфорт 1004.2 780.3
09 22.06 Ю 8 50 км 8/6 1000 м
[Sc Ac As Ci sp]
+18.5 +7.6 49 +18 +19 1006.8 780.2
12 22.06 Ю 4
{10}
50 км 5/3 1000 м
[Sc Ac trans Ci sp]
+20.7 +3.4 32 +21 +22 комфорт 1004.6 779.9 +23.1
15 22.06 Ю 1 н/о 3/0
[Ac trans]
+14.9 +4.6 50 +16 +16 1010.7 780.7
18 22.06 С 3 н/о 3/0
[Ac trans]
+13.3 +6.2 62 +12 +12 1011.9 780.4
21 22.06 З 3 н/о 4/0
[Ac trans]
+9.6 +5.0 73 +7 +7 1014.9 780.1
00 23.06 штиль 0 50 км 8/0
[Ac trans Ci]
+14.1 +6.4 60 +14 +16 1010.7 780.1 +9.3
03 23.06 З 2 50 км 8/0
[Ac trans Ci]
+21.5 -1.1 22 +21 +30 комфорт 1004.2 780.2
06 23.06 Ю 3
{11}
50 км 8/4 1000 м
[Cu med, cong Ac trans Cc]
+22.9 +1.3 24 +22 +28 комфорт 1001.9 779.3
09 23.06 З 6 10 км осадки на расстоянии {гроза} 8/8 1000 м
[Cu med, cong]
+23.5 -0.1 21 +22 +23 комфорт 1000.3 778.4
12 23.06 ЮЗ 4
{10}
50 км 9/8 1000 м
[Cu med, cong Ac trans Ci sp]
+22.6 +1.0 24 +22 +22 комфорт 1000.8 778.2 +24.7
15 23.06 ЮЗ 6 н/о 9/8 1000 м
[Sc Ac trans]
+19.6 -1.5 24 +19 +19 1003.9 778.7
18 23.06 ЮЗ 7 н/о 6/4 1000 м
[Sc Ac lent]
+16.8 -1.9 28 +16 +16 1026.3 778.6
21 23.06 ЮЗ 12 н/о 10/9 1000 м
[Sc Ac trans]
+14.4 +5.5 55 +12 +12 1008.7 778.8
00 24.06 штиль 0
{16}
50 км {дождь} 10/10 600 м
[Sc]
+12.7 +8.4 75 +12 +12 1010.6 779.1 +11.3 0.6
03 24.06 З 7 50 км 9/9 600 м
[Sc Ci sp]
+15.1 +6.4 56 +13 +14 1008.2 778.8
06 24.06 З 6 50 км 10/10 1000 м
[Sc]
+15.7 +4.4 47 +14 +14 1007.5 778.7
09 24.06 С 2
{14}
10 км слаб. дождь 9/9 600 м
[Frnb]
+10.4 +7.1 80 +9 +10 1013.9 779.9
12 24.06 В 2 50 км {дождь} 5/4 1000 м
[Sc Ac trans]
+11.7 +6.8 72 +11 +11 1011.9 779.3 +16.1 0.2
15 24.06 СЗ 1 н/о 4/4 1000 м
[Sc]
+9.0 +6.6 85 +8 +8 1014.0 779.0
18 24.06 Ю 1
{12}
н/о зарница 3/3 1000 м
[Cb cap]
+6.6 +2.9 77 +6 +6 1016.3 779.0
21 24.06 Ю 5 н/о 4/4 1000 м
[Sc]
+7.1 +2.4 72 +3 +3 1016.5 779.5
00 25.06 З 4 50 км ясно +11.3 -4.8 32 +10 +12 1012.7 779.7 +5.7
03 25.06 З 5 50 км 6/3 1000 м
[Cu hum Ac cast Cc]
+12.9 -5.0 28 +11 +15 1010.2 778.9
06 25.06 З 9 50 км 8/6 1000 м
[Cu med, cong Ac trans]
+14.9 -5.4 24 +13 +13 1007.0 777.8
09 25.06 З 8
{16}
50 км 8/8 1000 м
[Cu med, cong]
+16.4 -2.1 28 +15 +15 1004.7 777.1
12 25.06 З 4
{12}
50 км 8/3 1000 м
[Sc Ac trans]
+15.8 -8.5 18 +15 +16 1005.7 777.4 +17.2
15 25.06 СВ 5 н/о 9/5 1000 м
[Sc Ac und]
+12.5 -5.5 28 +11 +11 1010.4 778.8

 

Местоположение метеостанции Алтай (Монголия): широта 46.40 долгота 96.25 высота над уровнем моря 2181 м.

В архиве по умолчанию представлена погода в Алтае за последнюю неделю. Архивные данные за месяц целиком и за предыдущие месяцы, начиная с января 2011 года, Вы можете получить, выбрав интересующий диапазон дат из раскрывающегося списка и нажав кнопку "Ввод!".


*Определитесь, кто Вы:
робот инопланетянин человек

Внимание! Время в таблицах - всемирное. Для получения местного времени необходимо прибавить поправку, которая равна 8 ч.

Смотрите также архив погоды в соседних городах и на ближайших метеорологических станциях:

Погода в Баянбулаге (Монголия) (148 км)
Погода в Улиастае (Монголия) (157 км)
Погода в Тонхиле (Монголия) (181 км)
Погода в Эрдэни (Монголия) (182 км)
Погода в Цэцэн-Ууле (Монголия) (264 км)
Погода в Амарбуйантайане (Монголия) (275 км)
Погода в Ургамале (Монголия) (278 км)
Погода в Тосонцэнгэле (Монголия) (298 км)
Погода в Галууте (Монголия) (299 км)
Погода в Тариате (Монголия) (311 км)

Пояснения к столбцам:

Ветер - указаны скорость ветра в м/с - средняя за 10 мин, порывы в срок и между сроками (в фигурных скобках) и направление, откуда дует ветер: С - северный, СВ - северо-восточный, В - восточный, ЮВ - юго-восточный, Ю - южный, ЮЗ - юго-западный, З - западный, СЗ - северо-западный.
Видимость - горизонтальная дальность видимости в метрах или километрах. При видимости от 1 до 10 км при отсутствии осадков обычно наблюдается дымка, при ухудшении видимости до 1 км и менее - туман. В сухую погоду видимость может ухудшаться дымом, пылью или мглою.
Явления - указаны атмосферные явления, наблюдавшиеся в срок или в последний час перед сроком; фигурными скобками обозначены явления, наблюдавшиеся между сроками (за 1-3 часа до срока); квадратными скобками обозначены град или гололедные отложения с указанием их диаметра в мм.
Облачность - указаны через наклонную черту общая и нижняя облачность в баллах и высота нижней границы облаков в метрах; квадратными скобками обозначены формы облаков: Ci - перистые, Cs - перисто-слоистые, Cc - перисто-кучевые, Ac - высококучевые, As - высокослоистые, Sc - слоисто-кучевые, Ns - слоисто-дождевые, Cu - кучевые, Cb - кучево-дождевые. Подробнее классификацию облаков см. в Атласе облаков (PDF).
T - Температура воздуха - температура, измеренная на высоте 2 м над землей.
Td - Температура точки росы - температура, при понижении до которой содержащийся в воздухе водяной пар достигнет насыщения.
f - Относительная влажность воздуха - влажноcть воздуха, измеренная на высоте 2 м над землей.
Te - Эффективная температура - температура, которую ощущает одетый по сезону человек в тени. Характеристика душности погоды. При расчете учитывается влияние влажности воздуха и скорости ветра на теплоощущения человека.
Tes - Эффективная температура на солнце - температура, которую ощущает человек, с поправкой на солнечный нагрев. Характеристика знойности погоды. Зависит от высоты солнца над горизонтом, облачности и скорости ветра. Ночью, в пасмурную погоду, а также при ветре 12 м/с и более поправка равна нулю.
P - Атмосферное давление - приведенное к уровню моря атмосферное давление.
Po - Атмосферное давление - измеренное на уровне метеостанции атмосферное давление.
Tmin - Минимальная температура - минимум температуры воздуха на высоте 2 м над землей.
Tmax - Максимальная температура - максимум температуры воздуха на высоте 2 м над землей.
R - Количество осадков - Количество выпавших осадков за период времени, мм. При наведении курсора мыши на число - период времени, за который выпало указанное количество осадков.
R24 - Количество осадков - Количество выпавших осадков за 24 часа, мм.
S - Снежный покров - Высота снежного покрова, см. При наведении курсора мыши на число - состояние снежного покрова и степень покрытия местности в баллах.